Flag for Germany Weather past 2 weeks in Landshut, Bavaria, Germany

Now
43 °F

Quite cool.


Feels Like: 43 °F
Forecast: 42 / 69 °F
Wind: 2 mph from Northeast

Location: Erding Airport


UV Index: 3 (Moderate)

Visibility: N/A


Pressure: 29.65 "Hg

Humidity: 93%

Dew point: 41 °F

Location of LandshutLocation

Historic Weather in Landshut

°F

Landshut temperature yesterday

Maximum temperature yesterday: 59 °F (at 5:20 PM)
Minimum temperature yesterday: 45 °F (at 2:20 AM)
Average temperature yesterday: 51 °F

Past Weeks' High & Low Weather Summary

 TemperatureHumidityPressure
High68 °F (Apr 7, 2:20 PM)100% (Apr 6, 9:20 PM)30.36 "Hg (Apr 6, 9:20 PM)
Low27 °F (Apr 17, 6:20 AM)38% (Apr 17, 5:20 PM)29.65 "Hg (Apr 21, 2:20 AM)
Average48 °F75%30.05 "Hg
* Reported Apr 6 2:20 AM — Apr 21 2:20 AM, Landshut, Weather by CustomWeather, © 2014

Note: Actual official high and low records may vary slightly from our data, if they occured in-between our weather recording intervals... More about our weather records

Advertising

Historic Weather Conditions — Data for Previous 24 hours

 ConditionsComfort  
Time TempWeatherWind HumidityBarometerVisibility
2:20 AM
Apr 21
43 °FQuite cool.2 mph93%29.65 "HgN/A
1:20 AM45 °FQuite cool.2 mph87%29.68 "HgN/A
12:20 AM43 °FQuite cool.5 mph87%29.68 "HgN/A
11:20 PM
Apr 20
45 °FQuite cool.6 mph87%29.68 "HgN/A
10:20 PM46 °FCool.5 mph82%29.71 "HgN/A
9:20 PM48 °FCool.6 mph76%29.71 "HgN/A
8:20 PM52 °FCool.8 mph72%29.68 "HgN/A
7:20 PM55 °FRefreshingly cool.13 mph59%29.68 "HgN/A
6:20 PM57 °FRefreshingly cool.13 mph59%29.68 "HgN/A
5:20 PM59 °FRefreshingly cool.14 mph59%29.68 "HgN/A
4:20 PM57 °FRefreshingly cool.15 mph59%29.68 "HgN/A
3:20 PM57 °FCool.16 mph63%29.71 "HgN/A
2:20 PM57 °FCool.15 mph63%29.71 "HgN/A
1:20 PM57 °FCool.14 mph63%29.71 "HgN/A
12:20 PM55 °FCool.15 mph72%29.74 "HgN/A
11:20 AM54 °FCool.13 mph77%29.74 "HgN/A
10:20 AM52 °FCool.10 mph82%29.74 "HgN/A
9:20 AM50 °FCool.14 mph82%29.74 "HgN/A
8:20 AM50 °FCool.13 mph82%29.74 "HgN/A
7:20 AM48 °FCool.10 mph87%29.71 "HgN/A
6:20 AM48 °FCool.9 mph87%29.71 "HgN/A
5:20 AM48 °FCool.9 mph94%29.71 "HgN/A
4:20 AM48 °FCool.7 mph100%29.71 "HgN/A
3:20 AM45 °FQuite cool.1 mph100%29.71 "Hg1 mi
Weather by CustomWeather, © 2014

See weather overview